Bowie, TX

7:14 PM CDT on March 23, 2017 (GMT -0500)
Bowie

Weather History for K0F2 - March, 2014

Change the Weather History Date:

Tuesday, March 11, 2014

  Actual Average (KSPS) Record (KSPS)
Temperature  
Mean Temperature 66 °F -  
Max Temperature 82 °F 61 °F 95 °F (1967)
Min Temperature 50 °F 38 °F 6 °F (1948)
Cooling Degree Days 1    
Growing Degree Days 16 (Base 50)    
Moisture  
Dew Point 34 °F    
Average Humidity 46    
Maximum Humidity 82    
Minimum Humidity 4    
Precipitation  
Precipitation 0.00 in - - ()
Sea Level Pressure  
Sea Level Pressure 29.66 in    
Wind  
Wind Speed 11 mph (South)    
Max Wind Speed 36 mph    
Max Gust Speed 47 mph    
Visibility 10 miles    
Events      
Averages and records for this station are not official NWS values.
T = Trace of Precipitation, MM = Missing Value Source: NWS Daily Summary

Daily Weather History Graph

Daily Weather History Graph

Search for Another Location

Airport or City:

Trip Planner

Search our weather history database for the weather conditions in past years. The results will help you decide how hot, cold, wet, or windy it might be!

Date:

Astronomy

Mar. 11, 2014 Rise Set
Actual Time 7:46 AM CDT 7:35 PM CDT
Civil Twilight 7:21 AM CDT 8:00 PM CDT
Nautical Twilight 6:53 AM CDT 8:29 PM CDT
Astronomical Twilight 6:24 AM CDT 8:58 PM CDT
Moon 3:23 PM CDT (3/11) 4:30 AM CDT (3/11)
Length of Visible Light 12h 38m
Length of Day
11h 49m
Waxing Gibbous, 78% of the Moon is Illuminated
Mar 11
Waxing Gibbous
Mar 16
Full
Mar 23
Last Quarter
Mar 30
New
Apr 7
First Quarter

Hourly Weather History & Observations

Time (CDT) Temp. Dew Point Humidity Pressure Visibility Wind Dir Wind Speed Gust Speed Precip Events Conditions
12:15 AM 59.0 °F 42.8 °F 55% 29.82 in 10.0 mi SE 5.8 mph - N/A   Clear
12:35 AM 59.0 °F 42.8 °F 55% 29.82 in 10.0 mi SSE 6.9 mph - N/A   Clear
12:55 AM 57.2 °F 42.8 °F 59% 29.81 in 10.0 mi SE 6.9 mph - N/A   Clear
1:15 AM 57.2 °F 44.6 °F 63% 29.80 in 10.0 mi SE 6.9 mph - N/A   Clear
1:35 AM 57.2 °F 44.6 °F 63% 29.79 in 10.0 mi SE 8.1 mph - N/A   Clear
1:55 AM 57.2 °F 46.4 °F 67% 29.78 in 10.0 mi SE 5.8 mph - N/A   Clear
2:15 AM 55.4 °F 46.4 °F 72% 29.78 in 10.0 mi SE 3.5 mph - N/A   Clear
2:35 AM 55.4 °F 46.4 °F 72% 29.77 in 10.0 mi SE 5.8 mph - N/A   Clear
2:55 AM 55.4 °F 46.4 °F 72% 29.76 in 10.0 mi SE 5.8 mph - N/A   Clear
3:15 AM 55.4 °F 46.4 °F 72% 29.75 in 10.0 mi SSE 10.4 mph - N/A   Clear
3:35 AM 55.4 °F 46.4 °F 72% 29.75 in 10.0 mi SSE 8.1 mph - N/A   Clear
3:55 AM 53.6 °F 46.4 °F 77% 29.73 in 10.0 mi SSE 6.9 mph - N/A   Clear
4:15 AM 53.6 °F 46.4 °F 77% 29.72 in 10.0 mi SSE 8.1 mph - N/A   Clear
4:35 AM 55.4 °F 46.4 °F 72% 29.71 in 10.0 mi SSE 10.4 mph - N/A   Clear
4:55 AM 53.6 °F 46.4 °F 77% 29.71 in 10.0 mi SSE 8.1 mph - N/A   Clear
5:15 AM 53.6 °F 46.4 °F 77% 29.70 in 10.0 mi SSE 6.9 mph - N/A   Clear
5:35 AM 53.6 °F 46.4 °F 77% 29.70 in 10.0 mi SSE 6.9 mph - N/A   Clear
5:55 AM 53.6 °F 46.4 °F 77% 29.69 in 10.0 mi SE 9.2 mph - N/A   Clear
6:10 AM 53.6 °F 46.4 °F 77% 29.69 in 10.0 mi SE 6.9 mph - N/A   Clear
6:35 AM 51.8 °F 46.4 °F 82% 29.69 in 10.0 mi SE 6.9 mph - N/A   Clear
6:55 AM 51.8 °F 44.6 °F 76% 29.69 in 10.0 mi SSE 5.8 mph - N/A   Clear
7:15 AM 51.8 °F 46.4 °F 82% 29.69 in 10.0 mi SSE 8.1 mph - N/A   Clear
7:35 AM 51.8 °F 46.4 °F 82% 29.68 in 10.0 mi SE 6.9 mph - N/A   Clear
7:55 AM 51.8 °F 46.4 °F 82% 29.67 in 10.0 mi SE 6.9 mph - N/A   Clear
8:15 AM 51.8 °F 46.4 °F 82% 29.67 in 10.0 mi SSE 5.8 mph - N/A   Clear
8:35 AM 53.6 °F 46.4 °F 77% 29.66 in 10.0 mi SSE 6.9 mph - N/A   Clear
8:55 AM 53.6 °F 46.4 °F 77% 29.66 in 10.0 mi SSE 6.9 mph - N/A   Clear
9:15 AM 55.4 °F 46.4 °F 72% 29.65 in 10.0 mi SE 8.1 mph - N/A   Clear
9:35 AM 57.2 °F 46.4 °F 67% 29.65 in 10.0 mi SSE 9.2 mph - N/A   Clear
9:55 AM 59.0 °F 46.4 °F 63% 29.65 in 10.0 mi SSE 12.7 mph - N/A   Clear
10:15 AM 60.8 °F 44.6 °F 55% 29.65 in 10.0 mi SSE 10.4 mph - N/A   Clear
10:35 AM 64.4 °F 42.8 °F 45% 29.64 in 10.0 mi SSE 11.5 mph 17.3 mph N/A   Clear
10:55 AM 66.2 °F 42.8 °F 43% 29.64 in 10.0 mi South 15.0 mph 19.6 mph N/A   Clear
11:15 AM 68.0 °F 41.0 °F 37% 29.63 in 10.0 mi South 16.1 mph 21.9 mph N/A   Clear
11:35 AM 68.0 °F 39.2 °F 35% 29.61 in 10.0 mi SSE 13.8 mph 21.9 mph N/A   Clear
11:55 AM 69.8 °F 37.4 °F 31% 29.60 in 10.0 mi SSE 13.8 mph 21.9 mph N/A   Clear
12:15 PM 71.6 °F 35.6 °F 27% 29.58 in 10.0 mi SSE 17.3 mph 23.0 mph N/A   Clear
12:35 PM 71.6 °F 35.6 °F 27% 29.59 in 10.0 mi SSE 18.4 mph - N/A   Clear
12:55 PM 73.4 °F 32.0 °F 22% 29.58 in 10.0 mi South 18.4 mph 26.5 mph N/A   Clear
1:15 PM 73.4 °F 32.0 °F 22% 29.55 in 10.0 mi SSE 13.8 mph 21.9 mph N/A   Clear
1:35 PM 77.0 °F 30.2 °F 18% 29.55 in 10.0 mi South 18.4 mph 26.5 mph N/A   Clear
1:55 PM 77.0 °F 30.2 °F 18% 29.54 in 10.0 mi South 19.6 mph 25.3 mph N/A   Clear
2:15 PM 78.8 °F 30.2 °F 17% 29.53 in 10.0 mi South 13.8 mph 24.2 mph N/A   Clear
2:35 PM 78.8 °F 26.6 °F 15% 29.53 in 10.0 mi South 15.0 mph 24.2 mph N/A   Clear
2:55 PM 78.8 °F 21.2 °F 12% 29.53 in 10.0 mi SSW 16.1 mph 24.2 mph N/A   Clear
3:15 PM 80.6 °F 19.4 °F 10% 29.52 in 10.0 mi SW 16.1 mph 20.7 mph N/A   Clear
3:35 PM 80.6 °F 10.4 °F 7% 29.52 in 10.0 mi SW 16.1 mph 20.7 mph N/A   Clear
3:55 PM 82.4 °F 8.6 °F 6% 29.52 in 10.0 mi SSW 13.8 mph 21.9 mph N/A   Clear
4:15 PM 82.4 °F 1.4 °F 4% 29.51 in 10.0 mi WSW 11.5 mph 20.7 mph N/A   Clear
4:35 PM 82.4 °F -13.0 °F 4% 29.50 in 10.0 mi WSW 11.5 mph 19.6 mph N/A   Clear
4:55 PM 82.4 °F -18.4 °F 4% 29.50 in 10.0 mi SW 9.2 mph 16.1 mph N/A   Clear
5:15 PM 82.4 °F -25.6 °F 4% 29.50 in 10.0 mi WSW 11.5 mph 23.0 mph N/A   Clear
5:35 PM - - N/A% 29.51 in 10.0 mi WSW 10.4 mph 21.9 mph N/A   Clear
5:55 PM - - N/A% 29.51 in 10.0 mi West 10.4 mph 20.7 mph N/A   Clear
6:15 PM - - N/A% 29.52 in 10.0 mi West 11.5 mph 19.6 mph N/A   Clear
6:35 PM - - N/A% 29.52 in 10.0 mi West 10.4 mph - N/A   Clear
6:55 PM - - N/A% 29.53 in 10.0 mi West 6.9 mph - N/A   Clear
7:15 PM - - N/A% 29.55 in 10.0 mi NW 26.5 mph 38.0 mph N/A   Clear
7:35 PM - - N/A% - - North - - N/A   Unknown
7:55 PM 71.6 °F 10.4 °F 9% 29.62 in 10.0 mi NW 21.9 mph 31.1 mph N/A   Clear
8:15 PM 68.0 °F 21.2 °F 17% 29.65 in 7.0 mi NW 32.2 mph 41.4 mph N/A   Clear
8:35 PM 64.4 °F 23.0 °F 21% 29.68 in 7.0 mi NNW 21.9 mph 39.1 mph N/A   Scattered Clouds
8:55 PM 62.6 °F 23.0 °F 22% 29.70 in 10.0 mi NNW 23.0 mph 34.5 mph N/A   Clear
9:15 PM 62.6 °F 23.0 °F 22% 29.73 in 10.0 mi NNW 23.0 mph 33.4 mph N/A   Clear
9:35 PM 60.8 °F 23.0 °F 23% 29.76 in 10.0 mi NNW 21.9 mph 35.7 mph N/A   Clear
9:55 PM 57.2 °F 24.8 °F 29% 29.78 in 7.0 mi NNW 27.6 mph 38.0 mph N/A   Clear
10:15 PM 55.4 °F 26.6 °F 33% 29.80 in 10.0 mi NNW 21.9 mph 33.4 mph N/A   Clear
10:35 PM 53.6 °F 26.6 °F 35% 29.82 in 10.0 mi NNW 21.9 mph 36.8 mph N/A   Clear
10:55 PM 51.8 °F 26.6 °F 38% 29.84 in 7.0 mi NW 29.9 mph 40.3 mph N/A   Clear
11:15 PM 51.8 °F 26.6 °F 38% 29.86 in 10.0 mi NW 31.1 mph 41.4 mph N/A   Clear
11:35 PM 50.0 °F 26.6 °F 40% 29.87 in 10.0 mi NNW 35.7 mph 47.2 mph N/A   Clear
11:55 PM 50.0 °F 28.4 °F 43% 29.89 in 10.0 mi NNW 29.9 mph 41.4 mph N/A   Clear